Location: Leszno
(51.8417°N, 16.5778°E)
Time: 17:37:52
(UTC+01:00)

ISS - Visible Passes

Search period start: 11 December 2018 00:00
Search period end: 21 December 2018 00:00
Orbit: 401 x 408 km, 51.6° (Epoch: 12 December)

Date Brightness Start Highest point End Pass type
(mag) Time Alt. Az. Time Alt. Az. Time Alt. Az.
11 Dec -2.7 16:38:18 10° W 16:41:28 46° SSW 16:44:36 10° SE visible
11 Dec -0.8 18:15:53 10° WSW 18:17:20 12° SW 18:18:47 10° SSW visible
12 Dec -1.1 17:22:59 10° W 17:25:23 19° SW 17:27:47 10° SSE visible
13 Dec -1.6 16:30:29 10° W 16:33:21 28° SSW 16:36:12 10° SSE visible
14 Dec -0.2 17:16:25 10° SW 17:17:04 10° SW 17:17:42 10° SSW visible
15 Dec -0.6 16:22:56 10° W 16:25:05 16° SW 16:27:15 10° S visible
